• MPC Preparation (Info)

  • MPEC 2009-K59 : 2004 EP95

    The following Minor Planet Electronic Circular may be linked-to from your own Web pages, but must not otherwise be redistributed electronically.

    A form allowing access to any MPEC is at the bottom of this page.


    Read MPEC 2009-K58 Read MPEC 2009-K60


    M.P.E.C. 2009-K59                                Issued 2009 May 27, 23:05 UT
    
         The Minor Planet Electronic Circulars contain information on unusual
             minor planets and routine data on comets.  They are published
       on behalf of Commission 20 of the International Astronomical Union by the
              Minor Planet Center, Smithsonian Astrophysical Observatory,
                              Cambridge, MA 02138, U.S.A.
    
                 Prepared using the Tamkin Foundation Computer Network
    
                                  MPC@CFA.HARVARD.EDU
              URL http://www.cfa.harvard.edu/iau/mpc.html  ISSN 1523-6714
    
                                       2004 EP95
    
                               Revision to MPEC 2004-H30
    
    Additional Observations:
         K04E95P  C2005 03 09.49454 13 42 19.98 -04 32 14.4          23.1 R EK059695
         K04E95P  C2005 03 10.42724 13 42 16.96 -04 31 49.9                 EK059695
    
    Observer details:
    695 Kitt Peak.  Observers M. W. Buie, L. H. Wasserman.  Measurers M. W. Buie,
        L. H. Wasserman, D. E. Trilling, J. L. Elliot, R. L. Millis.  4-m f/2.8
        reflector + CCD.
    
    First and last observations above in comparison with prediction:
    Residuals in seconds of arc and reference
    050309 695 28.4+  9.8-    050310 695 28.5+  9.6-    MPO 66346
    
    Orbital elements:
    2004 EP95
    Epoch 2009 June 18.0 TT = JDT 2455000.5                 MPC
    M 284.98825              (2000.0)            P               Q
    n   0.00342823     Peri.  117.56378     +0.33663678     +0.94130913
    a  43.5601474      Node   171.98883     -0.91440308     +0.33306505
    e   0.0366273      Incl.   10.23140     -0.22481700     +0.05481597
    P 287              H    7.1           G   0.15           U   6
    Residuals in seconds of arc
    040314 695  0.1-  0.7+    040422 568  0.1-  0.1-    040514 568  0.0   0.1-
    040315 695  0.1+  0.3-    040422 568  0.2-  0.0     050309 695  0.0   0.1-
    040315 695  0.2+  0.2-    040514 568  0.1+  0.0     050310 695  0.0   0.1+
    
    Ephemeris:
    2004 EP95                a,e,i = 43.56, 0.04, 10                 q = 41.965
    Date    TT    R. A. (2000) Decl.     Delta      r     Elong.  Phase     V
    2009 05 19    13 57.90   -05 09.3   42.322   43.206   150.6     0.7    23.5
    2009 05 29    13 57.30   -05 06.5   42.412   43.205   141.0     0.8    23.6
    2009 06 08    13 56.78   -05 04.4   42.526   43.204   131.4     1.0    23.6
    2009 06 18    13 56.38   -05 03.1   42.658   43.203   121.8     1.1    23.6
    2009 06 28    13 56.09   -05 02.7   42.806   43.202   112.3     1.2    23.6
    2009 07 08    13 55.93   -05 03.0   42.964   43.201   102.8     1.3    23.6
    2009 07 18    13 55.92   -05 04.2   43.129   43.200    93.3     1.3    23.6
    2009 07 28    13 56.05   -05 06.2   43.295   43.199    83.9     1.3    23.6
    2009 08 07    13 56.31   -05 08.9   43.459   43.198    74.5     1.3    23.6
    2009 08 17    13 56.72   -05 12.3   43.615   43.197    65.0     1.2    23.6
    2009 08 27    13 57.25   -05 16.3   43.759   43.196    55.6     1.1    23.6
    2009 09 06    13 57.90   -05 20.8   43.887   43.195    46.2     1.0    23.6
    2009 09 16    13 58.65   -05 25.6   43.995   43.194    36.8     0.8    23.6
    
    Brian G. Marsden             (C) Copyright 2009 MPC           M.P.E.C. 2009-K59
    

    Read MPEC 2009-K58 Read MPEC 2009-K60


    MPEC number:

    Enter an MPEC number in one of the following forms:

    • 1997-B01 (the full form)
    • J97B01 (the packed version of the full form)
    • B01 (the abbreviated form)